Regional Weather Roundup
Issued by NWS

Home | Current Version | Previous Version | Text Only | Print | Product List | Glossary Off
Versions: 1 2 3 4 5 6 7 8 9 10 11 12 13 14 15 16 17 18 19 20 21 22 23 24 25 26 27 28 29 30 31 32 33 34 35 36 37 38 39 40 41 42 43 44 45 46 47 48 49 50

000
ASUS43 KDTX 172201
RWRMI
MICHIGAN HOURLY REGIONAL WEATHER ROUNDUP
NATIONAL WEATHER SERVICE DETROIT/PONTIAC MI
500 PM EST TUE JAN 17 2017

NOTE: "FAIR" INDICATES FEW OR NO CLOUDS BELOW 12,000 FEET WITH NO
SIGNIFICANT WEATHER AND/OR OBSTRUCTION TO VISIBILITY.

MIZ047>049-052>055-059>063-066>070-074>076-081>083-172300-
SOUTHEAST LOWER MICHIGAN

CITY           SKY/WX    TMP DP  RH WIND       PRES   REMARKS
ADRIAN         CLOUDY    42  41  96 W8        29.85R
ALMA           CLOUDY    35  34  97 W3        29.82R FOG
ANN ARBOR      CLOUDY    42  41  96 SW12      29.82R FOG
BAD AXE        FOG       35  35 100 CALM      29.77S VSB<1/4
CARO           FOG       35  35  99 SW3       29.77S VSB 1
DETROIT CITY   CLOUDY    45  45 100 W10       29.80R FOG
DETROIT        CLOUDY    44  42  93 SW15      29.83R
FLINT          FOG       36  35  96 W8        29.81R VSB 1   WCI  30
GROSSE ILE     CLOUDY    44  42  95 W12G17    29.81R FOG
HILLSDALE      CLOUDY    37  37 100 SW10G16   29.84R FOG     WCI  30
HOWELL         FOG       39  38  97 W8        29.81R VSB 1   WCI  34

CITY           SKY/WX    TMP DP  RH WIND       PRES   REMARKS
JACKSON        CLOUDY    39  37  92 W16       29.83R FOG     WCI  30
LAMBERTVILLE   CLOUDY    46  43  90 W9G18     29.85R
LANSING        CLOUDY    39  36  89 W10       29.83R FOG     WCI  32
LAPEER         CLOUDY    37  37 100 W6        29.79R FOG     WCI  32
MASON          FOG       38  38 100 W8        29.83R VSB 1   WCI  32
MONROE         CLOUDY    44  43  97 W16G23    29.83R
MT. CLEMENS    CLOUDY    43  43 100 W7        29.77S FOG
PONTIAC        CLOUDY    40  37  89 W13       29.79R WCI  32
PORT HOPE        N/A     35  34  96 CALM      29.76R
PORT HURON     CLOUDY    39  39 100 SW5       29.78R
TRI CITIES     FOG       36  36 100 W3        29.80S VSB 1/8
MIDLAND        FOG       37  35  95 CALM      29.80R VSB 1/4
TROY           CLOUDY    45  41  88 W10G17    29.81R
SAGINAW HB     FOG       36  34  93 W6        29.79S VSB 3/4 WCI  31
$$
MIZ043>046-050>051-056>058-064>065-071>073-077>080-172300-
SOUTHWEST LOWER MICHIGAN

CITY           SKY/WX    TMP DP  RH WIND       PRES   REMARKS
BATTLE CREEK   CLOUDY    38  38 100 W13       29.86R FOG     WCI  30
BENTON HARBOR  FOG       38  36  92 SW12      29.89S VSB 1/2 WCI  30
BIG RAPIDS     CLOUDY    34  33  96 CALM      29.81R FOG
COLDWATER      CLOUDY    39  39 100 W14       29.86R FOG     WCI  31
FREMONT        FOG       35  35 100 CALM      29.83R VSB 1/4
HOLLAND        CLOUDY    37  36  96 W9        29.87R FOG     WCI  30
GRAND RAPIDS   DRZL/FOG  36  34  92 W12       29.85R VSB 1/4 WCI  28
IONIA          LGT RAIN  35  35  99 W6        29.83R VSB 1/2 WCI  30
KALAMAZOO      CLOUDY    39  36  89 W10       29.87R WCI  32
LUDINGTON      FOG       35  35 100 CALM      29.83R VSB 3/4
MARSHALL       CLOUDY    38  38  97 SW14      29.85R FOG     WCI  30
MOUNT PLEASANT FOG       34  34  99 CALM      29.80S VSB 1/2
MUSKEGON       FOG       37  36  96 SW5       29.85R VSB 3/4 WCI  33
SOUTH HAVEN    CLOUDY    37  37  99 W9        29.89R FOG     WCI  31
$$
MIZ016>042-172300-
NORTHERN LOWER MICHIGAN

CITY           SKY/WX    TMP DP  RH WIND       PRES   REMARKS
ALPENA         FOG       34  33  96 NE6       29.83R VSB 1   WCI  29
BELLAIRE       CLOUDY    35  34  96 CALM      29.84R
CADILLAC       FOG       36  34  92 CALM      29.79R VSB 1/2
CHARLEVOIX     CLOUDY    34  34 100 NE8       29.88R FOG     WCI  27
FRANKFORT      CLOUDY    36  36  99 NE3       29.83R FOG
GAYLORD        FOG       34  32  92 NE3       29.81R VSB 1/4
GRAYLING       CLOUDY    34  33  96 CALM      29.81R FOG
HARBOR SPRINGS MIX PCPN  32  32  99 NE8       29.86R WCI  25
HOUGHTON LAKE  CLOUDY    34  32  92 N6        29.80R FOG     WCI  29
MANISTEE       MIX PCPN  36  35  96 NW3       29.83R VSB 1/2
OSCODA         FOG       36  35  96 N5        29.79R VSB 1/2 WCI  32
PELLSTON       CLOUDY    32  29  88 NE8       29.87R FOG     WCI  25
ROGERS CITY    FOG       34  32  94 NE8       29.87R VSB 1   WCI  27
TRAVERSE CITY  DRIZZLE   36  34  92 CALM      29.83R FOG
$$
MIZ007>008-015-172300-
EASTERN UPPER MICHIGAN

CITY           SKY/WX    TMP DP  RH WIND       PRES   REMARKS
KINROSS        CLOUDY    34  26  72 NE5       29.88R WCI  30
MACKINAC ISLAN CLOUDY    32  32 100 NE12      29.87S FOG     WCI  23
NEWBERRY       CLOUDY    32  28  86 NE6       29.87S WCI  26
S. S. MARIE    CLOUDY    36  25  64 E3        29.88R
MUNISING         N/A     34  31  88 N3        29.90R
$$
MIZ004>006-011>014-085-172300-
CENTRAL UPPER MICHIGAN

CITY           SKY/WX    TMP DP  RH WIND       PRES   REMARKS
MANISTIQUE     CLOUDY    34  33  96 NE3       29.87R
ESCANABA       CLOUDY    35  34  96 N5        29.89R FOG     WCI  31
SAWYER-GWINN   CLOUDY    32  28  86 N8        29.88R WCI  25
$$
MIZ001>003-009>011-084-172300-
WESTERN UPPER MICHIGAN

CITY           SKY/WX    TMP DP  RH WIND       PRES   REMARKS
IRON MOUNTAIN  CLOUDY    36  31  82 CALM      29.86R
HOUGHTON       CLEAR     34  24  67 W5        29.87S WCI  30
COPPER HARBOR    N/A     33  30  88 CALM      29.89F
IRONWOOD       CLEAR     37  26  64 NW7       29.91R WCI  32
$$

ABBREVIATIONS USED IN REMARKS
   TC - TEMPERATURE IN CELSIUS
  WCI - WIND CHILL INDEX
   HX - HEAT INDEX
  VSB - VISIBILITY




USA.gov is the U.S. government's official web portal to all federal, state and local government web resources and services.